OBJECT A, 60235

Orbit data source: Space-Track

You're viewing an Uncataloged Satellite

Recently launched and/or uncataloged satellites may have evolving metadata. Metadata may include but not limited to: Owner, Maufacturer, Bus, Motor, and Mission.

OBJECT A, 60235 is a satellite in LEO that was launched on Tue, 09 Jul 2024 UTC via an ARIANE 62 launch vehicle from the French Guiana (FRGUI). Unknown objects in Earth's orbit typically refer to objects detected orbiting the Earth but have not yet been identified or cataloged. These objects could be anything from previously untracked satellites, spent rocket stages, debris from satellite collisions, or even natural meteoroids temporarily captured by Earth's gravity.

Loading next visibility...
Identifier
60235, 2024-128A
Orbit
LEO
Last TLE update
7 hours ago
Origin
Flag of TBDUCB/NASA (TBD)
Manufacturer
UCB
Mission
Amateur Science
Bus & Motor
CUBESAT 3U, Unknown motor
Mass
5 kg wet, 5 kg dry
Launch date (UTC)
2024-07-09 (10 months ago)
Launch vehicle
ARIANE 62
Launch site
French Guiana (FRGUI)
Object type
Unknown
Shape & HBR
Box, 0.3 m
Radar Cross Section
0.035 m², Small (<0.1 m²)

Expand to show TLE details & history

TLE from 7 hours ago
0 OBJECT A
1 60235U 24128A   25129.56334314  .00002119  00000-0  18796-3 0  9998
2 60235  61.9942 192.3948 0053301  42.3334 318.1849 14.98552415 45463
Epoch: 2025-05-09T13:31Z
Definitive object data (Epoch: 2025-05-09T13:31:12.847Z)
Latitude
-0.00001°
Longitude
121.97357°
Altitude
545.615 km
Speed
7.605 km/s
True Right ascension
12h 49m 34s
True Declination
0° 00' 00"
Sunlit
Object was in full shadow at TLE epoch
Visualization TLE readout
Latitude
9.73602°
Longitude
-64.26567°
Altitude
594.285 km
Speed
7.552 km/s
Apparent Right ascension
21h 35m 13s
Apparent Declination
-23° 27' 26"
Sunlit
Object is in daylight
Visualization observer readout
Local Sidereal Time
04:51:32
Azimuth
262.58° W
Elevation
-29.039°
Doppler factor
1
Orbital elements
Apogee altitude
607.336 km
Perigee altitude
533.264 km
Semi-major axis
6,948.437 km
Eccentricity
0.0053301
Inclination
61.9942°
RAAN
192.3948°
Arg. of periapsis
42.3334°
True anomaly
317.77564°
Mean anomaly
318.1849°
Eccentric anomaly
317.98048°
Mean motion
3.74725 °/min
BSTAR
0.00018796
Orbital period
96.07 mins
Loading maneuver chart data...
Loading SW <> Apogee altitude chart data...
Loading historical data...
Loading historical data...
Loading historical data...
Loading historical data...
Loading historical data...
Loading historical data...
Loading historical data...

OBJECT A Visibility forecast

Observer location: undefined°, undefined°

Span
Click to sort rows by Start time (UTC) header in descending order
Start Az.
Max El. time (UTC)
Max El. Az.
Max El.
End time (UTC)
End Az.
6 mins2025-05-10 05:40:22.426Z188.955° SSW2025-05-10 05:43:22.426Z128.546° SE33.991°2025-05-10 05:46:22.426Z54.65° ENE
4 mins2025-05-10 07:21:22.426Z288.896° WNW2025-05-10 07:22:22.426Z307.851° NW18.641°2025-05-10 07:25:22.426Z1.837° NNE
6 mins2025-05-10 14:04:22.426Z344.077° N2025-05-10 14:07:22.426Z71.822° E35.051°2025-05-10 14:10:22.426Z121.892° SE
4 mins2025-05-10 15:44:22.426Z268.595° W2025-05-10 15:45:22.426Z251.651° W16.539°2025-05-10 15:48:22.426Z205.321° SW
|